Location: São Paulo
(23.5507°S, 46.6334°W)
Time: 06:18:58
(UTC-03:00)

Transit 4A - All Passes

Search period start: 16 February 2026 00:00
Search period end: 26 February 2026 00:00
Orbit: 865 x 976 km, 66.8° (Epoch: 14 February)

Date Brightness Start Highest point End Pass type
(mag) Time Alt. Az. Time Alt. Az. Time Alt. Az.
16 Feb - 02:01:38 10° SSW 02:07:32 88° WNW 02:13:19 10° NNE visible
16 Feb - 15:11:30 10° NNW 15:17:53 80° ENE 15:24:13 10° SSE daylight
16 Feb - 17:02:20 10° WSW 17:04:41 12° SW 17:07:02 10° SSW daylight
17 Feb - 00:26:16 10° SSE 00:29:41 16° ESE 00:33:02 10° E visible
17 Feb - 02:10:31 10° SW 02:16:12 53° WNW 02:21:48 10° N night (unlit)
17 Feb - 13:38:12 10° NE 13:40:54 13° ENE 13:43:35 10° ESE daylight
17 Feb - 15:20:17 10° NNW 15:26:37 66° WSW 15:32:54 10° SSE daylight
18 Feb - 00:33:53 10° S 00:38:38 25° ESE 00:43:18 10° ENE visible
18 Feb - 02:19:42 10° SW 02:24:49 32° WNW 02:29:53 10° N night (unlit)
18 Feb - 13:44:45 10° NNE 13:49:27 22° ENE 13:54:07 10° ESE daylight
18 Feb - 15:29:26 10° NW 15:35:24 42° WSW 15:41:21 10° S daylight
19 Feb - 00:42:01 10° S 00:47:30 39° ESE 00:52:52 10° NE visible
19 Feb - 02:29:22 10° WSW 02:33:23 19° WNW 02:37:22 10° NNW night (unlit)
19 Feb - 13:52:21 10° N 13:58:03 35° ENE 14:03:41 10° SE daylight
19 Feb - 15:39:00 10° WNW 15:44:17 27° WSW 15:49:32 10° S daylight
20 Feb - 00:50:27 10° SSW 00:56:18 65° ESE 01:02:01 10° NNE night (unlit)
20 Feb - 02:40:35 10° W 02:41:55 11° WNW 02:43:14 10° WNW night (unlit)
20 Feb - 14:00:29 10° N 14:06:41 56° ENE 14:12:51 10° SSE daylight
20 Feb - 15:49:11 10° W 15:53:14 17° WSW 15:57:16 10° SSW daylight
20 Feb - 23:17:08 10° SE 23:18:11 10° SE 23:19:14 10° ESE visible
21 Feb - 00:59:08 10° SSW 01:05:01 78° WNW 01:10:46 10° NNE night (unlit)
21 Feb - 14:09:00 10° NNW 14:15:23 89° ENE 14:21:43 10° SSE daylight
21 Feb - 16:01:04 10° WSW 16:02:17 11° SW 16:03:29 10° SW daylight
21 Feb - 23:23:25 10° SSE 23:27:13 17° ESE 23:30:59 10° E visible
22 Feb - 01:08:05 10° SW 01:13:39 47° WNW 01:19:10 10° N night (unlit)
22 Feb - 12:34:59 10° NE 12:38:21 15° ENE 12:41:41 10° ESE daylight
22 Feb - 14:17:52 10° NW 14:24:07 59° WSW 14:30:20 10° SSE daylight
22 Feb - 23:31:11 10° S 23:36:09 28° ESE 23:41:02 10° ENE visible
23 Feb - 01:17:22 10° SW 01:22:16 28° WNW 01:27:07 10° NNW night (unlit)
23 Feb - 12:41:55 10° NNE 12:46:54 25° ENE 12:51:52 10° SE daylight
23 Feb - 14:27:07 10° NW 14:32:56 37° WSW 14:38:43 10° S daylight
23 Feb - 23:39:24 10° S 23:45:00 44° ESE 23:50:29 10° NE visible
24 Feb - 01:27:13 10° WSW 01:30:49 17° WNW 01:34:23 10° NW night (unlit)
24 Feb - 12:49:40 10° N 12:55:31 39° ENE 13:01:19 10° SE daylight
24 Feb - 14:36:48 10° WNW 14:41:49 24° WSW 14:46:49 10° S daylight
24 Feb - 23:47:54 10° SSW 23:53:46 73° ESE 23:59:31 10° NNE visible
25 Feb - 12:57:54 10° N 13:04:11 63° ENE 13:10:23 10° SSE daylight
25 Feb - 14:47:12 10° W 14:50:47 15° WSW 14:54:22 10° SSW daylight
25 Feb - 22:13:36 10° SE 22:15:45 12° SE 22:17:53 10° ESE visible
